1486857600.76,49518,9.75,73850.8,-10.01,-25.35,-26.07,0,*63
1486857602.04,49519,9.75,73848.5,-9.99,-25.29,-25.97,0,*5C
1486857603.26,49520,9.75,73850.3,-10.01,-25.35,-26.07,0,*68
1486857604.52,49521,9.75,73844.8,-9.99,-25.49,-26.13,0,*5E
1486857605.8,49522,9.75,73846.0,-9.99,-25.29,-26.13,0,*5B
1486857607.05,49523,9.75,73850.8,-9.99,-25.35,-26.13,0,*57
1486857608.31,49524,9.75,73846.8,-9.99,-25.35,-26.13,0,*50
1486857609.57,49525,9.75,73846.5,-10.01,-25.29,-26.13,0,*65
1486857610.83,49526,9.75,73846.8,-9.99,-25.29,-26.07,0,*5A
1486857612.09,49527,9.75,73846.5,-9.99,-25.23,-25.97,0,*5B
1486857613.3,49528,9.75,73848.0,-9.97,-25.19,-26.03,0,*5D
1486857614.55,49529,9.75,73846.5,-9.99,-25.23,-26.13,0,*5A
1486857615.81,49530,9.75,73848.8,-9.99,-25.29,-26.07,0,*5D
1486857617.09,49531,9.75,73848.3,-9.99,-25.29,-26.13,0,*59
1486857618.33,49532,9.75,73850.8,-9.99,-25.13,-26.07,0,*56
1486857619.58,49533,9.75,73850.0,-9.99,-25.23,-26.13,0,*51
1486857620.84,49534,9.75,73850.3,-9.99,-25.13,-25.97,0,*5A
1486857622.1,49535,9.75,73848.8,-9.99,-25.23,-26.13,0,*57
1486857623.31,49536,9.75,73848.0,-9.97,-25.09,-26.03,0,*53
1486857624.52,49537,9.75,73846.8,-9.97,-25.19,-26.07,0,*57
1486857625.72,49538,9.75,73848.0,-9.97,-25.19,-26.07,0,*58
1486857626.93,49539,9.75,73844.8,-9.97,-25.19,-26.23,0,*5F
1486857628.13,49540,9.75,73846.8,-9.97,-25.23,-26.23,0,*58
1486857629.36,49541,9.75,73844.8,-9.97,-25.23,-26.17,0,*5E
1486857630.57,49542,9.75,73848.5,-9.97,-25.09,-26.07,0,*54
1486857631.77,49543,9.75,73848.3,-9.97,-25.19,-26.07,0,*54
1486857633.0,49544,9.75,73850.0,-9.97,-25.19,-26.17,0,*52
1486857634.21,49545,9.75,73850.3,-9.97,-25.23,-26.23,0,*5D
1486857635.46,49546,9.75,73846.8,-9.95,-25.19,-26.17,0,*52
1486857636.66,49547,9.75,73850.0,-9.97,-25.19,-26.23,0,*56
1486857637.86,49548,9.75,73848.3,-9.97,-25.19,-26.23,0,*59
1486857639.09,49549,9.75,73846.5,-9.97,-25.19,-26.17,0,*5F
1486857640.29,49550,9.75,73848.3,-9.97,-25.19,-26.23,0,*50
1486857641.5,49551,9.75,73846.3,-9.97,-25.19,-26.23,0,*51
1486857642.73,49552,9.75,73848.0,-9.97,-25.23,-26.33,0,*5A
1486857643.96,49553,9.75,73846.0,-9.95,-25.23,-26.39,0,*53
1486857645.19,49554,9.75,73846.5,-9.97,-25.19,-26.17,0,*53
1486857646.42,49555,9.75,73846.5,-9.97,-25.19,-26.33,0,*54
1486857647.66,49556,9.75,73844.3,-9.99,-25.13,-26.39,0,*59
1486857648.89,49557,9.75,73848.3,-9.97,-25.19,-26.33,0,*56
1486857650.13,49558,9.75,73850.5,-9.97,-25.19,-26.33,0,*59
1486857651.36,49559,9.75,73850.3,-9.97,-25.19,-26.33,0,*58
1486857652.6,49560,9.75,73848.5,-9.99,-25.13,-26.39,0,*5C
1486857653.85,49561,9.75,73846.8,-9.99,-25.23,-26.29,0,*5F
1486857655.07,49562,9.75,73846.8,-9.97,-25.09,-26.39,0,*5B
1486857656.27,49563,9.75,73846.8,-9.97,-25.19,-26.39,0,*5B
1486857657.48,49564,9.75,73844.3,-9.97,-25.19,-26.39,0,*5C
1486857658.69,49565,9.75,73850.8,-9.97,-25.23,-26.39,0,*54
1486857659.9,49566,9.75,73848.0,-9.97,-25.23,-26.45,0,*5C
1486857661.15,49567,9.75,73850.5,-9.97,-25.29,-26.55,0,*56
1486857662.4,49568,9.75,73846.5,-9.99,-25.29,-26.45,0,*56
1486857663.63,49569,9.75,73850.8,-9.97,-25.23,-26.55,0,*52
1486857664.83,49570,9.75,73846.3,-9.97,-25.23,-26.45,0,*5B
1486857666.06,49571,9.75,73848.8,-9.97,-25.23,-26.55,0,*5B
1486857667.31,49572,9.75,73848.5,-9.97,-25.29,-26.55,0,*52
1486857668.54,49573,9.75,73846.3,-9.97,-25.23,-26.55,0,*59
1486857669.77,49574,9.75,73848.3,-9.97,-25.23,-26.55,0,*5E
1486857671.02,49575,9.75,73846.5,-9.99,-25.29,-26.61,0,*5C
1486857672.22,49576,9.75,73848.3,-9.97,-25.23,-26.45,0,*5D
1486857673.43,49577,9.75,73846.0,-9.97,-25.23,-26.45,0,*5C
1486857674.66,49578,9.75,73848.5,-9.97,-25.23,-26.55,0,*52
1486857675.91,49579,9.75,73846.8,-9.97,-25.29,-26.55,0,*59
1486857677.16,49580,9.75,73846.0,-9.97,-25.29,-26.55,0,*5F
1486857678.39,49581,9.75,73848.8,-9.97,-25.39,-26.71,0,*59
1486857679.65,49582,9.75,73852.5,-9.99,-25.29,-26.65,0,*50
1486857680.91,49583,9.75,73848.5,-9.99,-25.49,-26.77,0,*54
1486857682.16,49584,9.75,73850.8,-9.99,-25.29,-26.65,0,*56
1486857683.41,49585,9.75,73850.5,-9.99,-25.29,-26.65,0,*57
1486857684.67,49586,9.75,73846.8,-9.99,-25.29,-26.65,0,*54
1486857685.92,49587,9.75,73850.0,-9.99,-25.29,-26.65,0,*55
1486857687.15,49588,9.75,73850.0,-9.99,-25.23,-26.61,0,*54
1486857688.4,49589,9.75,73850.3,-9.99,-25.29,-26.61,0,*5F
1486857689.63,49590,9.75,73844.0,-9.99,-25.35,-26.65,0,*5E
1486857690.88,49591,9.75,73848.3,-9.99,-25.45,-26.65,0,*58
1486857692.13,49592,9.75,73848.8,-10.01,-25.49,-26.77,0,*6D
1486857693.38,49593,9.75,73850.5,-9.99,-25.29,-26.65,0,*50
1486857694.61,49594,9.75,73848.5,-9.99,-25.35,-26.61,0,*5E
1486857695.86,49595,9.75,73846.5,-9.99,-25.29,-26.65,0,*56
1486857697.11,49596,9.75,73848.0,-9.99,-25.29,-26.65,0,*55
1486857698.35,49597,9.75,73846.8,-10.01,-25.29,-26.61,0,*69
1486857699.63,49598,9.75,73850.0,-9.99,-25.29,-26.77,0,*58
1486857700.86,49599,9.75,73848.8,-9.99,-25.35,-26.65,0,*57
1486857702.11,49600,9.75,73848.5,-9.99,-25.29,-26.65,0,*59
1486857703.32,49601,9.75,73850.0,-10.01,-25.35,-26.65,0,*6C
1486857704.6,49602,9.75,73850.0,-9.99,-25.29,-26.77,0,*58
1486857705.86,49603,9.75,73848.5,-9.99,-25.49,-26.77,0,*5F
1486857707.14,49604,9.75,73850.0,-9.99,-25.45,-26.77,0,*54
1486857708.4,49605,9.75,73852.3,-10.01,-25.45,-26.81,0,*65
1486857709.66,49606,9.75,73846.8,-9.99,-25.29,-26.65,0,*5F
1486857710.92,49607,9.75,73848.3,-10.01,-25.45,-26.77,0,*6E
1486857712.18,49608,9.75,73846.8,-9.99,-25.49,-26.81,0,*5D
1486857713.44,49609,9.75,73850.8,-9.99,-25.61,-26.81,0,*56
1486857714.69,49610,9.75,73846.8,-10.01,-25.45,-26.93,0,*62
1486857715.93,49611,9.75,73850.3,-10.01,-25.61,-26.93,0,*65
1486857717.21,49612,9.75,73846.5,-9.99,-25.45,-26.93,0,*59
1486857718.49,49613,9.75,73850.3,-9.99,-25.45,-26.81,0,*5B
1486857719.72,49614,9.75,73848.8,-10.01,-25.35,-26.81,0,*62
1486857720.93,49615,9.75,73844.8,-10.01,-25.35,-26.65,0,*69
1486857722.18,49616,9.75,73846.5,-10.01,-25.49,-26.81,0,*6B
1486857723.44,49617,9.75,73848.8,-10.01,-25.45,-26.81,0,*66
1486857724.68,49618,9.75,73848.8,-10.01,-25.29,-26.65,0,*69
1486857725.96,49619,9.75,73846.3,-9.99,-25.29,-26.77,0,*52
1486857727.19,49620,9.75,73850.3,-10.01,-25.35,-26.93,0,*66
1486857728.43,49621,9.75,73848.5,-10.01,-25.35,-26.77,0,*6D
1486857729.69,49622,9.75,73848.8,-9.99,-25.49,-26.81,0,*55
1486857730.94,49623,9.75,73850.8,-9.99,-25.29,-26.65,0,*58
1486857732.2,49624,9.75,73850.0,-9.99,-25.35,-26.77,0,*51
1486857733.44,49625,9.75,73850.8,-10.01,-25.35,-26.81,0,*60
1486857734.7,49626,9.75,73846.5,-10.01,-25.45,-26.93,0,*67
1486857735.95,49627,9.75,73848.8,-10.01,-25.45,-26.93,0,*66
1486857737.21,49628,9.75,73850.3,-10.01,-25.45,-26.93,0,*69
1486857738.45,49629,9.75,73844.8,-10.01,-25.49,-26.93,0,*64
1486857739.71,49630,9.75,73846.5,-10.01,-25.45,-26.93,0,*60
1486857740.97,49631,9.75,73846.0,-9.99,-25.35,-26.77,0,*55
1486857742.22,49632,9.75,73846.5,-9.99,-25.49,-26.93,0,*57
1486857743.48,49633,9.75,73846.0,-9.99,-25.49,-26.93,0,*56
1486857744.75,49634,9.75,73846.0,-10.01,-25.45,-26.81,0,*67
1486857746.0,49635,9.75,73848.5,-10.01,-25.45,-26.93,0,*65
1486857747.28,49636,9.75,73848.5,-9.99,-25.45,-26.77,0,*55
1486857748.51,49637,9.75,73844.3,-9.99,-25.49,-26.65,0,*5B
1486857749.78,49638,9.75,73848.3,-10.01,-25.45,-26.81,0,*6B
1486857751.02,49639,9.75,73850.5,-10.01,-25.65,-26.97,0,*6F
1486857752.28,49640,9.75,73850.5,-10.01,-25.45,-26.81,0,*64
1486857753.54,49641,9.75,73848.8,-9.99,-25.61,-26.81,0,*5A
1486857754.82,49642,9.75,73850.8,-9.99,-25.45,-26.81,0,*5F
1486857756.06,49643,9.75,73848.3,-10.01,-25.49,-26.93,0,*68
1486857757.32,49644,9.75,73848.8,-9.99,-25.49,-26.81,0,*55
1486857758.58,49645,9.75,73850.5,-9.99,-25.49,-26.97,0,*53
1486857759.82,49646,9.75,73850.0,-10.01,-25.49,-26.93,0,*6D
1486857761.08,49647,9.75,73844.8,-9.99,-25.49,-26.93,0,*55
1486857762.32,49648,9.75,73848.5,-10.01,-25.61,-26.97,0,*6D
1486857763.57,49649,9.75,73848.0,-10.01,-25.61,-26.81,0,*6B
1486857764.83,49650,9.75,73848.0,-9.99,-25.49,-26.81,0,*50
1486857766.07,49651,9.75,73844.5,-10.01,-25.49,-26.93,0,*6B
1486857767.33,49652,9.75,73848.3,-9.99,-25.49,-26.97,0,*55
1486857768.57,49653,9.75,73848.0,-10.01,-25.49,-26.93,0,*69
1486857769.83,49654,9.75,73848.5,-9.99,-25.61,-26.97,0,*59
1486857771.1,49655,9.75,73850.0,-10.01,-25.75,-26.93,0,*60
1486857772.31,49656,9.75,73850.3,-10.01,-25.65,-27.07,0,*6E
1486857773.57,49657,9.75,73850.0,-9.99,-25.75,-27.07,0,*57
1486857774.83,49658,9.75,73850.3,-9.99,-25.75,-27.13,0,*5D
1486857776.07,49659,9.75,73846.3,-10.01,-25.75,-27.07,0,*60
1486857777.31,49660,9.75,73846.5,-10.01,-25.65,-26.97,0,*63
1486857778.58,49661,9.75,73848.3,-10.01,-25.75,-26.97,0,*63
1486857779.82,49662,9.75,73850.8,-10.01,-25.75,-27.07,0,*68
1486857781.08,49663,9.75,73846.8,-9.99,-25.75,-27.07,0,*50
1486857782.32,49664,9.75,73848.3,-10.01,-25.81,-27.07,0,*65
1486857783.54,49665,9.75,73850.8,-10.01,-25.65,-27.07,0,*6E
1486857784.78,49666,9.75,73848.3,-10.01,-25.75,-27.07,0,*6C
1486857786.04,49667,9.75,73848.3,-9.99,-25.75,-27.07,0,*54
1486857787.28,49668,9.75,73848.5,-10.01,-25.75,-27.13,0,*67
1486857788.52,49669,9.75,73848.0,-10.01,-25.75,-27.07,0,*63
1486857789.76,49670,9.75,73848.3,-10.01,-25.81,-27.07,0,*60
1486857791.02,49671,9.75,73850.0,-9.99,-25.81,-27.07,0,*58
1486857792.28,49672,9.75,73850.0,-9.99,-25.75,-27.07,0,*50
1486857793.52,49673,9.75,73846.8,-10.01,-25.75,-27.07,0,*68
1486857794.78,49674,9.75,73848.8,-9.99,-25.81,-27.07,0,*5D
1486857796.02,49675,9.75,73848.0,-10.01,-25.81,-27.07,0,*65
1486857797.26,49676,9.75,73846.8,-10.01,-25.91,-27.23,0,*61
1486857798.47,49677,9.75,73848.3,-10.01,-25.91,-27.13,0,*63
1486857799.68,49678,9.75,73850.8,-10.01,-25.91,-27.13,0,*6C
1486857800.92,49679,9.75,73848.8,-10.01,-25.91,-27.23,0,*6E
1486857802.16,49680,9.75,73844.5,-10.01,-25.97,-27.13,0,*6D
1486857803.37,49681,9.75,73848.3,-10.01,-25.91,-27.13,0,*6A
1486857804.61,49682,9.75,73848.5,-10.01,-25.97,-27.13,0,*6F
1486857805.9,49683,9.75,73848.8,-10.03,-25.97,-27.19,0,*66
1486857807.17,49684,9.75,73848.5,-10.01,-25.81,-26.97,0,*63
1486857808.41,49685,9.75,73848.3,-10.01,-25.81,-27.07,0,*6A
1486857809.62,49686,9.75,73848.3,-10.01,-25.91,-27.13,0,*6D
1486857810.83,49687,9.75,73850.8,-10.01,-25.91,-27.13,0,*6C
1486857812.08,49688,9.75,73844.3,-10.03,-26.03,-27.29,0,*60
1486857813.35,49689,9.75,73846.5,-10.03,-25.97,-27.29,0,*6F
1486857814.62,49690,9.75,73846.5,-10.03,-26.03,-27.19,0,*6A
1486857815.91,49691,9.75,73848.0,-10.03,-25.97,-27.19,0,*65
1486857817.18,49692,9.75,73846.0,-10.03,-26.03,-27.19,0,*68
1486857818.45,49693,9.75,73848.5,-10.01,-25.97,-27.23,0,*6C
1486857819.69,49694,9.75,73846.8,-10.01,-25.91,-27.23,0,*6D
1486857820.96,49695,9.75,73846.3,-10.03,-25.97,-27.29,0,*62
1486857822.23,49696,9.75,73850.0,-10.03,-25.97,-27.29,0,*61
1486857823.5,49697,9.75,73848.8,-10.03,-26.03,-27.19,0,*6D
1486857824.75,49698,9.75,73852.0,-10.03,-26.03,-27.29,0,*61
1486857825.99,49699,9.75,73850.8,-10.05,-26.03,-27.23,0,*6C
1486857827.25,49700,9.75,73848.5,-10.03,-26.03,-27.29,0,*61
1486857828.51,49701,9.75,73848.5,-10.05,-26.17,-27.39,0,*62
1486857829.78,49702,9.75,73848.3,-10.05,-26.17,-27.39,0,*61
1486857831.02,49703,9.75,73850.3,-10.05,-26.17,-27.29,0,*61
1486857832.32,49704,9.75,73848.0,-10.03,-26.17,-27.35,0,*6D
1486857833.59,49705,9.75,73848.0,-10.03,-26.13,-27.29,0,*65
1486857834.82,49706,9.75,73848.0,-10.05,-26.07,-27.19,0,*66
1486857836.07,49707,9.75,73850.5,-10.03,-26.03,-27.13,0,*6F
1486857837.34,49708,9.75,73848.8,-10.03,-26.13,-27.29,0,*68
1486857838.61,49709,9.75,73848.5,-10.03,-26.17,-27.29,0,*6D
1486857839.88,49710,9.75,73848.3,-10.03,-26.17,-27.29,0,*65
1486857841.11,49711,9.75,73848.5,-10.05,-26.23,-27.35,0,*68
1486857842.41,49712,9.75,73850.0,-10.03,-26.17,-27.35,0,*6A
1486857843.68,49713,9.75,73850.8,-10.05,-26.17,-27.35,0,*6D
1486857844.94,49714,9.75,73848.3,-10.03,-26.13,-27.29,0,*65
1486857846.24,49715,9.75,73848.8,-10.03,-26.17,-27.19,0,*63
1486857847.5,49716,9.75,73850.3,-10.05,-26.17,-27.35,0,*68
1486857848.77,49717,9.75,73850.8,-10.05,-26.13,-27.35,0,*6D
1486857850.0,49718,9.75,73844.8,-10.05,-26.23,-27.23,0,*66
1486857851.27,49719,9.75,73846.8,-10.05,-26.17,-27.23,0,*60
1486857852.52,49720,9.75,73848.3,-10.03,-26.03,-27.03,0,*6B
1486857853.74,49721,9.75,73850.5,-10.05,-26.03,-27.07,0,*68
1486857854.96,49722,9.75,73848.8,-10.05,-26.03,-27.07,0,*6B
1486857856.22,49723,9.75,73850.3,-10.03,-25.97,-27.13,0,*67
1486857857.47,49724,9.75,73850.3,-10.03,-26.03,-27.13,0,*6E
1486857858.68,49725,9.75,73850.8,-10.05,-26.07,-27.07,0,*68
1486857859.95,49726,9.75,73846.5,-10.03,-25.97,-27.03,0,*63
1486857861.21,49727,9.75,73850.8,-10.03,-26.13,-27.13,0,*6C
1486857862.5,49728,9.75,73846.8,-10.03,-26.13,-27.19,0,*69
1486857863.71,49729,9.75,73848.3,-10.05,-26.23,-27.13,0,*67
1486857864.97,49730,9.75,73850.8,-10.03,-26.17,-27.13,0,*6E
1486857866.2,49731,9.75,73846.8,-10.05,-26.23,-27.23,0,*6D
1486857867.43,49732,9.75,73850.3,-10.05,-26.23,-27.23,0,*6E
1486857868.7,49733,9.75,73846.8,-10.05,-26.17,-27.19,0,*61
1486857869.96,49734,9.75,73848.3,-10.05,-26.17,-27.23,0,*6F
1486857871.25,49735,9.75,73846.3,-10.03,-26.13,-27.19,0,*65
1486857872.54,49736,9.75,73848.5,-10.03,-26.13,-27.19,0,*66
1486857873.78,49737,9.75,73844.8,-10.05,-26.17,-27.07,0,*6A
1486857875.04,49738,9.75,73848.3,-10.03,-26.13,-27.13,0,*62
1486857876.31,49739,9.75,73850.5,-10.05,-26.17,-27.19,0,*6B
1486857877.54,49740,9.75,73850.8,-10.05,-26.23,-27.19,0,*62
1486857878.8,49741,9.75,73848.0,-10.05,-26.17,-27.19,0,*64
1486857880.07,49742,9.75,73846.0,-10.05,-26.17,-27.19,0,*67
1486857881.33,49743,9.75,73850.8,-10.05,-26.17,-27.19,0,*66
1486857882.57,49744,9.75,73850.3,-10.05,-26.23,-27.19,0,*66
1486857883.83,49745,9.75,73848.5,-10.03,-26.13,-27.03,0,*69
1486857885.07,49746,9.75,73850.5,-10.05,-26.07,-27.19,0,*62
1486857886.3,49747,9.75,73848.0,-10.05,-26.23,-27.23,0,*6C
1486857887.54,49748,9.75,73850.8,-10.05,-26.17,-27.07,0,*62
1486857888.81,49749,9.75,73848.0,-10.05,-26.17,-27.23,0,*65
1486857890.07,49750,9.75,73848.8,-10.05,-26.17,-27.23,0,*6D
1486857891.34,49751,9.75,73848.8,-10.03,-26.17,-27.13,0,*69
1486857892.6,49752,9.75,73848.8,-10.05,-26.17,-27.19,0,*66
1486857893.87,49753,9.75,73852.0,-10.03,-26.13,-27.13,0,*6F
1486857895.13,49754,9.75,73850.8,-10.03,-26.17,-27.13,0,*6C
1486857896.37,49755,9.75,73848.3,-10.05,-26.39,-27.23,0,*64
1486857897.6,49756,9.75,73852.3,-10.05,-26.13,-27.13,0,*6C
1486857898.89,49757,9.75,73850.5,-10.03,-26.29,-27.19,0,*68
1486857900.16,49758,9.75,73848.0,-10.05,-26.33,-27.19,0,*6A
1486857901.43,49759,9.75,73848.8,-10.03,-26.29,-27.29,0,*65
1486857902.72,49760,9.75,73850.5,-10.03,-26.33,-27.19,0,*67
1486857903.97,49761,9.75,73850.0,-10.05,-26.33,-27.07,0,*6F
1486857905.26,49762,9.75,73850.5,-10.03,-26.33,-27.19,0,*65
1486857906.53,49763,9.75,73850.8,-10.05,-26.33,-27.23,0,*6B
1486857907.83,49764,9.75,73850.3,-10.03,-26.33,-27.19,0,*63
1486857909.07,49765,9.75,73848.0,-10.05,-26.39,-27.35,0,*60
1486857910.31,49766,9.75,73848.3,-10.05,-26.49,-27.39,0,*68
1486857911.58,49767,9.75,73848.3,-10.03,-26.29,-27.29,0,*68
1486857912.81,49768,9.75,73848.3,-10.05,-26.23,-27.19,0,*68
1486857914.08,49769,9.75,73846.8,-10.05,-26.33,-27.23,0,*61
1486857915.32,49770,9.75,73850.5,-10.05,-26.39,-27.35,0,*64
1486857916.56,49771,9.75,73848.3,-10.05,-26.49,-27.35,0,*62
1486857917.83,49772,9.75,73850.8,-10.05,-26.33,-27.19,0,*62
1486857919.1,49773,9.75,73850.5,-10.05,-26.33,-27.23,0,*6A
1486857920.34,49774,9.75,73850.3,-10.05,-26.39,-27.35,0,*60
1486857921.64,49775,9.75,73850.3,-10.03,-26.33,-27.19,0,*63
1486857922.9,49776,9.75,73850.0,-10.03,-26.29,-27.13,0,*61
1486857924.19,49777,9.75,73850.0,-10.07,-26.33,-27.23,0,*6C
1486857925.43,49778,9.75,73852.5,-10.07,-26.23,-27.03,0,*60
1486857926.66,49779,9.75,73852.0,-10.07,-26.23,-27.03,0,*61
1486857927.94,49780,9.75,73848.8,-10.07,-26.33,-27.07,0,*62
1486857929.18,49781,9.75,73852.8,-10.05,-26.17,-27.03,0,*63
1486857930.39,49782,9.69,73848.5,-10.05,-26.23,-27.03,0,*67
1486857931.63,49783,9.75,73848.3,-10.05,-26.33,-27.07,0,*63
1486857932.88,49784,9.75,73850.5,-10.05,-26.33,-27.07,0,*64
1486857934.09,49785,9.75,73848.0,-10.05,-26.39,-27.07,0,*6F
1486857935.33,49786,9.75,73850.0,-10.05,-26.49,-27.23,0,*6D
1486857936.57,49787,9.75,73848.3,-10.05,-26.39,-27.23,0,*6B
1486857937.84,49788,9.75,73848.3,-10.07,-26.49,-27.35,0,*66
1486857939.08,49789,9.75,73848.3,-10.05,-26.49,-27.23,0,*62
1486857940.35,49790,9.69,73846.3,-10.07,-26.49,-27.23,0,*68
1486857941.64,49791,9.75,73850.0,-10.07,-26.55,-27.35,0,*63
1486857942.9,49792,9.75,73850.0,-10.07,-26.49,-27.35,0,*6D
1486857944.19,49793,9.75,73850.8,-10.07,-26.55,-27.35,0,*61
1486857945.46,49794,9.75,73850.3,-10.07,-26.39,-27.23,0,*6B
1486857946.73,49795,9.75,73850.0,-10.07,-26.33,-27.07,0,*66
1486857948.0,49796,9.75,73852.3,-10.07,-26.33,-27.03,0,*61
1486857949.24,49797,9.75,73854.5,-10.07,-26.39,-27.07,0,*6E
1486857950.5,49798,9.75,73848.5,-10.07,-26.39,-27.19,0,*6E
1486857951.77,49799,9.75,73852.3,-10.07,-26.39,-27.23,0,*66
1486857953.03,49800,9.75,73854.5,-10.07,-26.49,-27.23,0,*6E
1486857954.32,49801,9.75,73854.3,-10.07,-26.55,-27.23,0,*62
1486857955.57,49802,9.75,73852.5,-10.09,-26.49,-27.23,0,*62
1486857956.79,49803,9.69,73844.5,-10.09,-26.49,-27.07,0,*65
1486857958.04,49804,9.75,73848.0,-10.09,-26.33,-27.07,0,*6F
1486857959.29,49805,9.75,73850.8,-10.09,-26.33,-27.07,0,*6E
1486857960.53,49806,9.75,73850.5,-10.09,-26.39,-27.23,0,*61
1486857961.78,49807,9.75,73850.8,-10.09,-26.39,-27.23,0,*60
1486857963.02,49808,9.75,73848.5,-10.09,-26.49,-27.19,0,*61
1486857964.27,49809,9.75,73852.3,-10.07,-26.49,-27.07,0,*61
1486857965.55,49810,9.75,73852.5,-10.07,-26.55,-27.23,0,*62
1486857966.82,49811,9.75,73852.5,-10.09,-26.55,-27.23,0,*6D
1486857968.08,49812,9.75,73848.5,-10.09,-26.55,-27.23,0,*6E
1486857969.33,49813,9.75,73854.3,-10.09,-26.49,-27.35,0,*65
1486857970.62,49814,9.75,73850.5,-10.07,-26.55,-27.23,0,*66
1486857971.9,49815,9.75,73850.8,-10.07,-26.55,-27.23,0,*67
1486857973.15,49816,9.75,73848.0,-10.09,-26.49,-27.23,0,*67
1486857974.39,49817,9.75,73850.8,-10.09,-26.49,-26.93,0,*6C
1486857975.61,49818,9.75,73854.0,-10.09,-26.49,-27.07,0,*6F
1486857976.85,49819,9.75,73854.5,-10.07,-26.39,-27.07,0,*67
1486857978.08,49820,9.75,73854.5,-10.09,-26.49,-27.03,0,*60
1486857979.3,49821,9.75,73854.8,-10.09,-26.49,-27.03,0,*61
1486857980.55,49822,9.69,73848.3,-10.09,-26.49,-26.93,0,*6A
1486857981.79,49823,9.75,73852.5,-10.09,-26.55,-27.07,0,*6A
1486857983.01,49824,9.75,73848.8,-10.09,-26.49,-27.07,0,*60
1486857984.23,49825,9.75,73848.8,-10.09,-26.49,-27.07,0,*61
1486857985.5,49826,9.75,73850.3,-10.07,-26.49,-27.19,0,*63
1486857986.72,49827,9.75,73852.3,-10.09,-26.49,-27.07,0,*63
1486857987.96,49828,9.75,73850.3,-10.07,-26.49,-27.07,0,*62
1486857989.19,49829,9.75,73852.0,-10.09,-26.49,-27.07,0,*6D
1486857990.41,49830,9.75,73854.3,-10.09,-26.49,-27.07,0,*65
1486857991.65,49831,9.75,73852.5,-10.09,-26.55,-27.07,0,*69
1486857992.89,49832,9.75,73850.8,-10.13,-26.61,-27.13,0,*63
1486857994.15,49833,9.69,73848.3,-10.13,-26.61,-27.23,0,*61
1486857995.39,49834,9.75,73854.3,-10.13,-26.61,-27.13,0,*65
1486857996.62,49835,9.75,73850.0,-10.13,-26.61,-27.07,0,*61
1486857997.88,49836,9.69,73848.3,-10.13,-26.55,-27.07,0,*65
1486857999.15,49837,9.75,73850.0,-10.13,-26.55,-27.07,0,*64
1486858000.38,49838,9.69,73850.3,-10.15,-26.61,-26.97,0,*62
1486858001.62,49839,9.75,73850.5,-10.13,-26.61,-27.07,0,*6D
1486858002.89,49840,9.75,73852.5,-10.13,-26.65,-27.23,0,*61
1486858004.13,49841,9.75,73850.0,-10.13,-26.65,-27.13,0,*63
1486858005.37,49842,9.75,73854.8,-10.13,-26.61,-27.13,0,*64
1486858006.6,49843,9.75,73852.8,-10.13,-26.61,-27.13,0,*65
1486858007.89,49844,9.75,73850.5,-10.13,-26.55,-26.97,0,*68
1486858009.18,49845,9.75,73854.8,-10.13,-26.55,-26.97,0,*69
1486858010.47,49846,9.75,73852.0,-10.13,-26.55,-26.97,0,*6A
1486858011.73,49847,9.75,73850.0,-10.13,-26.45,-26.97,0,*6A
1486858012.97,49848,9.75,73850.8,-10.15,-26.49,-26.97,0,*6F
1486858014.21,49849,9.75,73854.3,-10.13,-26.61,-27.07,0,*6A
1486858015.45,49850,9.69,73848.0,-10.13,-26.65,-27.13,0,*63
1486858016.72,49851,9.75,73848.0,-10.13,-26.77,-27.13,0,*61
1486858018.01,49852,9.75,73854.3,-10.13,-26.77,-27.23,0,*61
1486858019.3,49853,9.69,73848.5,-10.13,-26.77,-27.23,0,*60
1486858020.54,49854,9.75,73852.8,-10.13,-26.65,-27.13,0,*67
1486858021.81,49855,9.75,73850.3,-10.13,-26.81,-27.13,0,*6C
1486858023.05,49856,9.75,73854.5,-10.15,-26.65,-26.97,0,*6E
1486858024.27,49857,9.69,73850.3,-10.15,-26.65,-27.03,0,*63
1486858025.54,49858,9.75,73852.5,-10.13,-26.65,-26.97,0,*66
1486858026.83,49859,9.75,73850.3,-10.13,-26.55,-26.93,0,*60
1486858028.07,49860,9.69,73850.8,-10.15,-26.65,-26.97,0,*6B
1486858029.28,49861,9.75,73850.8,-10.15,-26.61,-26.87,0,*6F
1486858030.49,49862,9.75,73854.8,-10.15,-26.65,-27.03,0,*65
1486858031.73,49863,9.75,73852.5,-10.15,-26.71,-27.03,0,*61
1486858032.97,49864,9.69,73848.5,-10.15,-26.81,-27.13,0,*68
1486858034.23,49865,9.75,73852.5,-10.13,-26.61,-26.97,0,*6C
1486858035.49,49866,9.75,73852.3,-10.13,-26.61,-26.81,0,*68
1486858036.74,49867,9.75,73850.0,-10.15,-26.81,-27.03,0,*6A
1486858037.97,49868,9.69,73850.0,-10.15,-26.81,-27.13,0,*64
1486858039.25,49869,9.75,73850.5,-10.13,-26.77,-27.03,0,*6B
1486858040.5,49870,9.75,73852.5,-10.15,-26.71,-26.97,0,*6F
1486858041.78,49871,9.75,73854.8,-10.13,-26.65,-26.97,0,*6D
1486858043.04,49872,9.75,73854.3,-10.15,-26.81,-26.97,0,*62
1486858044.24,49873,9.75,73852.0,-10.15,-26.87,-27.13,0,*68
1486858045.45,49874,9.75,73854.5,-10.15,-26.87,-27.03,0,*6E
1486858046.72,49875,9.69,73848.8,-10.19,-26.71,-26.97,0,*66
1486858047.94,49876,9.69,73850.3,-10.19,-26.65,-26.87,0,*61
1486858049.17,49877,9.75,73854.5,-10.15,-26.61,-26.81,0,*6E
1486858050.39,49878,9.75,73854.3,-10.15,-26.65,-26.87,0,*63
1486858051.65,49879,9.75,73852.3,-10.15,-26.81,-26.97,0,*69
1486858052.92,49880,9.69,73850.3,-10.19,-26.71,-26.97,0,*6C
1486858054.18,49881,9.75,73852.8,-10.19,-26.71,-26.97,0,*6D
1486858055.45,49882,9.75,73852.3,-10.19,-26.81,-26.97,0,*61
1486858056.66,49883,9.75,73854.0,-10.15,-26.87,-27.13,0,*67
1486858057.87,49884,9.75,73850.8,-10.15,-26.87,-27.03,0,*61
1486858059.1,49885,9.75,73852.8,-10.15,-26.81,-26.87,0,*6B
1486858060.34,49886,9.75,73848.8,-10.21,-26.87,-27.03,0,*64
1486858061.55,49887,9.75,73852.3,-10.19,-26.87,-27.13,0,*6F
1486858062.82,49888,9.75,73850.3,-10.21,-26.93,-27.07,0,*6B
1486858064.09,49889,9.69,73848.0,-10.21,-26.93,-27.03,0,*6E
1486858065.36,49890,9.69,73846.5,-10.21,-26.93,-27.03,0,*66
1486858066.6,49891,9.69,73848.5,-10.21,-27.03,-27.03,0,*6F
1486858067.87,49892,9.75,73854.3,-10.21,-26.93,-27.07,0,*60
1486858069.14,49893,9.69,73848.0,-10.21,-26.93,-27.03,0,*65
1486858070.38,49894,9.69,73850.0,-10.19,-26.81,-26.87,0,*67
1486858071.64,49895,9.75,73854.8,-10.21,-26.87,-26.97,0,*6A
1486858072.89,49896,9.75,73852.5,-10.19,-26.81,-26.87,0,*65
1486858074.15,49897,9.75,73854.5,-10.19,-26.71,-26.81,0,*6D
1486858075.42,49898,9.75,73854.3,-10.19,-26.81,-26.81,0,*6D
1486858076.71,49899,9.75,73854.5,-10.21,-26.93,-26.93,0,*67
1486858077.96,49900,9.75,73854.5,-10.21,-27.03,-27.03,0,*66
1486858079.24,49901,9.75,73854.0,-10.21,-26.93,-26.93,0,*67
1486858080.51,49902,9.75,73850.5,-10.21,-26.93,-27.03,0,*6C
1486858081.78,49903,9.75,73852.5,-10.21,-26.93,-27.03,0,*6D
1486858083.03,49904,9.69,73850.8,-10.21,-27.03,-27.03,0,*62
1486858084.27,49905,9.75,73852.5,-10.21,-27.03,-27.03,0,*63
1486858085.51,49906,9.75,73854.5,-10.21,-27.07,-27.07,0,*60
1486858086.77,49907,9.75,73850.5,-10.21,-27.19,-27.07,0,*6E
1486858088.01,49908,9.75,73850.8,-10.21,-27.07,-27.07,0,*6E
1486858089.25,49909,9.69,73850.0,-10.21,-27.07,-27.07,0,*6F
1486858090.49,49910,9.69,73848.8,-10.21,-27.03,-27.03,0,*67
1486858091.78,49911,9.75,73852.8,-10.21,-26.93,-26.93,0,*66
1486858093.02,49912,9.75,73854.8,-10.23,-26.87,-26.93,0,*62
1486858094.23,49913,9.75,73852.0,-10.23,-27.03,-26.87,0,*6B
1486858095.5,49914,9.75,73850.5,-10.25,-27.07,-26.97,0,*6F
1486858096.73,49915,9.69,73850.5,-10.23,-27.03,-26.93,0,*68
1486858097.97,49916,9.69,73848.8,-10.25,-27.07,-27.13,0,*60
1486858099.19,49917,9.69,73848.5,-10.23,-27.07,-27.03,0,*66
1486858100.46,49918,9.69,73850.3,-10.25,-27.07,-26.97,0,*63
1486858101.73,49919,9.69,73852.0,-10.23,-26.93,-26.93,0,*6C